This is the latest recevied weather packets stored in our database for station/object KF6GPE. If no packets are shown the sender has not sent any weather packets the latest 10 day(s).
| Time | Temp. | Humidity | Pressure | Rain* | Wind** | Luminosity | Snow |
|---|---|---|---|---|---|---|---|
| 1777498203 | 22.78° C | 60% | 990 hPa | 0 mm | - | 1084 W/m² | - |
| 1777497003 | 23.33° C | 60% | 990.1 hPa | 0 mm | - | 1087 W/m² | - |
| 1777496404 | 23.33° C | 61% | 990 hPa | 0 mm | - | 1090 W/m² | - |
| 1777495803 | 23.33° C | 60% | 989.9 hPa | 0 mm | - | 1091 W/m² | - |
| 1777495203 | 24.44° C | 57% | 989.8 hPa | 0 mm | - | 1092 W/m² | - |
| 1777494603 | 24.44° C | 58% | 989.8 hPa | 0 mm | - | 1094 W/m² | - |
| 1777494003 | 23.89° C | 57% | 989.9 hPa | 0 mm | - | 1093 W/m² | - |
| 1777493403 | 23.89° C | 55% | 989.9 hPa | 0 mm | - | 1094 W/m² | - |
| 1777492803 | 23.89° C | 44% | 990 hPa | 0 mm | - | 1094 W/m² | - |
| 1777492203 | 24.44° C | 45% | 990.1 hPa | 0 mm | - | 1094 W/m² | - |
| 1777491003 | 23.33° C | 44% | 990.4 hPa | 0 mm | - | 1093 W/m² | - |
| 1777490403 | 23.33° C | 47% | 990.5 hPa | 0 mm | - | 1092 W/m² | - |
| 1777489802 | 23.33° C | 49% | 990.6 hPa | 0 mm | - | 1091 W/m² | - |
| 1777488603 | 23.33° C | 48% | 990.8 hPa | 0 mm | - | 1089 W/m² | - |
| 1777488003 | 23.33° C | 51% | 990.9 hPa | 0 mm | - | 1087 W/m² | - |
| 1777487403 | 22.78° C | 49% | 991 hPa | 0 mm | - | 1085 W/m² | - |
| 1777486803 | 22.22° C | 52% | 991 hPa | 0 mm | - | 1083 W/m² | - |
| 1777486203 | 21.67° C | 52% | 991.1 hPa | 0 mm | - | 1081 W/m² | - |
| 1777485604 | 21.11° C | 57% | 991.2 hPa | 0 mm | - | 1079 W/m² | - |
| 1777484403 | 18.89° C | 58% | 991.5 hPa | 0 mm | - | 1074 W/m² | - |
| 1777483803 | 17.78° C | 69% | 991.6 hPa | 0 mm | - | 1071 W/m² | - |
| 1777483203 | 16.11° C | 70% | 991.5 hPa | 0 mm | - | 1020 W/m² | - |
| 1777482602 | 15° C | 72% | 991.5 hPa | 0 mm | - | 1014 W/m² | - |
| 1777482003 | 13.89° C | 82% | 991.6 hPa | 0 mm | - | 1004 W/m² | - |
| 1777481403 | 12.22° C | 84% | 991.6 hPa | 0 mm | - | 1002 W/m² | - |
* Rain latest hour (hover to see other rain measurements)
** Current wind speed in m/s (hover to see current wind gust speed)